• In Germany
  • List of Countries
  • For 7 days
  • Water Temperature
  • Satellite Maps
  • Weather Map
  • Weather Widgets
  • user-avatar
    Login

    Hourly Weather La Rioja

    Today, 18 November, Saturday

    Time Temperature Precipitation Wind Pressure Humidity
    00:00 +24°C° 0 mm 3 mps 714 mmHg 30%
    01:00 +22°C° 0 mm 3 mps 714 mmHg 30%
    02:00 +21°C° 0 mm 4 mps 715 mmHg 30%
    03:00 +20°C° 0 mm 3 mps 715 mmHg 30%
    04:00 +20°C° 0 mm 3 mps 715 mmHg 29%
    05:00 +19°C° 0 mm 2 mps 715 mmHg 29%
    06:00 +20°C° 0 mm 3 mps 716 mmHg 27%
    07:00 +20°C° 0 mm 3 mps 716 mmHg 25%
    08:00 +21°C° 0 mm 3 mps 717 mmHg 22%
    09:00 +22°C° 0 mm 3 mps 716 mmHg 21%
    10:00 +24°C° 0 mm 3 mps 716 mmHg 20%
    11:00 +25°C° 0 mm 3 mps 716 mmHg 18%
    12:00 +26°C° 0 mm 3 mps 715 mmHg 17%
    13:00 +28°C° 0 mm 3 mps 715 mmHg 16%
    14:00 +29°C° 0 mm 3 mps 714 mmHg 15%
    15:00 +29°C° 0 mm 3 mps 713 mmHg 14%
    16:00 +29°C° 0 mm 3 mps 713 mmHg 14%
    17:00 +29°C° 0 mm 3 mps 712 mmHg 13%
    18:00 +28°C° 0 mm 3 mps 713 mmHg 15%
    19:00 +27°C° 0 mm 2 mps 713 mmHg 16%
    20:00 +26°C° 0 mm 2 mps 713 mmHg 18%
    21:00 +25°C° 0 mm 2 mps 713 mmHg 19%
    22:00 +24°C° 0 mm 2 mps 713 mmHg 21%
    23:00 +23°C° 0 mm 2 mps 714 mmHg 23%

    Tomorrow, 19 November, Sunday

    Time Temperature Precipitation Wind Pressure Humidity
    00:00 +23°C° 0 mm 2 mps 713 mmHg 24%
    01:00 +21°C° 0 mm 2 mps 713 mmHg 25%
    02:00 +21°C° 0 mm 2 mps 712 mmHg 26%
    03:00 +20°C° 0 mm 2 mps 712 mmHg 26%
    04:00 +21°C° 0 mm 1 mps 712 mmHg 26%
    05:00 +20°C° 0 mm 1 mps 711 mmHg 26%
    06:00 +23°C° 0 mm 1 mps 712 mmHg 23%
    07:00 +25°C° 0 mm 1 mps 712 mmHg 19%
    08:00 +27°C° 0 mm 1 mps 713 mmHg 15%
    09:00 +28°C° 0 mm 1 mps 713 mmHg 14%
    10:00 +30°C° 0 mm 2 mps 713 mmHg 13%
    11:00 +31°C° 0 mm 2 mps 713 mmHg 12%
    12:00 +32°C° 0 mm 2 mps 712 mmHg 11%
    13:00 +34°C° 0 mm 3 mps 711 mmHg 10%
    14:00 +35°C° 0 mm 3 mps 710 mmHg 9%
    15:00 +35°C° 0 mm 3 mps 709 mmHg 9%
    16:00 +35°C° 0 mm 3 mps 709 mmHg 9%
    17:00 +35°C° 0 mm 3 mps 708 mmHg 9%
    18:00 +34°C° 0 mm 3 mps 708 mmHg 10%
    19:00 +31°C° 0 mm 3 mps 708 mmHg 12%
    20:00 +29°C° 0 mm 2 mps 709 mmHg 13%
    21:00 +29°C° 0 mm 3 mps 709 mmHg 15%
    22:00 +28°C° 0 mm 3 mps 709 mmHg 17%
    23:00 +27°C° 0 mm 3 mps 709 mmHg 18%

    Day after tomorrow, 20 November, Monday

    Time Temperature Precipitation Wind Pressure Humidity
    00:00 +26°C° 0 mm 2 mps 709 mmHg 19%
    01:00 +25°C° 0 mm 2 mps 708 mmHg 20%
    02:00 +25°C° 0 mm 1 mps 708 mmHg 21%
    03:00 +24°C° 0 mm 1 mps 708 mmHg 22%
    04:00 +24°C° 0 mm 2 mps 708 mmHg 23%
    05:00 +23°C° 0 mm 2 mps 708 mmHg 24%
    06:00 +25°C° 0 mm 2 mps 709 mmHg 23%
    07:00 +27°C° 0 mm 2 mps 709 mmHg 22%
    08:00 +29°C° 0 mm 2 mps 710 mmHg 21%
    09:00 +30°C° 0 mm 2 mps 710 mmHg 19%
    10:00 +33°C° 0 mm 3 mps 710 mmHg 16%
    11:00 +35°C° 0 mm 3 mps 710 mmHg 14%
    12:00 +36°C° 0 mm 4 mps 709 mmHg 13%
    13:00 +37°C° 0 mm 4 mps 708 mmHg 12%
    14:00 +39°C° 0 mm 5 mps 708 mmHg 10%
    15:00 +39°C° 0 mm 5 mps 707 mmHg 10%
    16:00 +39°C° 0 mm 5 mps 707 mmHg 10%
    17:00 +39°C° 0 mm 5 mps 707 mmHg 10%
    18:00 +36°C° 0 mm 4 mps 708 mmHg 12%
    19:00 +34°C° 0 mm 4 mps 709 mmHg 13%
    20:00 +33°C° 0 mm 4 mps 710 mmHg 14%
    21:00 +32°C° 0 mm 5 mps 712 mmHg 19%
    22:00 +30°C° 0 mm 6 mps 713 mmHg 24%
    23:00 +28°C° 0 mm 7 mps 715 mmHg 28%

    21 November, Tuesday

    Time Temperature Precipitation Wind Pressure Humidity
    00:00 +27°C° 0.6 mm 6 mps 715 mmHg 37%
    01:00 +25°C° 0.6 mm 5 mps 716 mmHg 46%
    02:00 +23°C° 0.6 mm 4 mps 716 mmHg 55%
    03:00 +22°C° 0 mm 3 mps 716 mmHg 56%
    04:00 +23°C° 0 mm 2 mps 717 mmHg 58%
    05:00 +23°C° 0 mm 1 mps 717 mmHg 59%
    06:00 +23°C° 0 mm 2 mps 717 mmHg 56%
    07:00 +24°C° 0 mm 2 mps 718 mmHg 54%
    08:00 +24°C° 0 mm 2 mps 718 mmHg 52%
    09:00 +26°C° 0.2 mm 3 mps 718 mmHg 47%
    10:00 +27°C° 0.2 mm 3 mps 718 mmHg 42%
    11:00 +28°C° 0.2 mm 4 mps 717 mmHg 37%
    12:00 +29°C° 0.2 mm 4 mps 717 mmHg 34%
    13:00 +30°C° 0.2 mm 4 mps 716 mmHg 31%
    14:00 +32°C° 0.2 mm 4 mps 715 mmHg 28%
    15:00 +32°C° 0.1 mm 5 mps 715 mmHg 27%
    16:00 +32°C° 0.1 mm 5 mps 715 mmHg 25%
    17:00 +32°C° 0.1 mm 5 mps 714 mmHg 24%
    18:00 +30°C° 0 mm 4 mps 715 mmHg 26%
    19:00 +29°C° 0 mm 4 mps 715 mmHg 28%
    20:00 +28°C° 0 mm 3 mps 716 mmHg 30%
    21:00 +27°C° 0 mm 3 mps 716 mmHg 33%
    22:00 +27°C° 0 mm 2 mps 716 mmHg 35%
    23:00 +26°C° 0 mm 2 mps 717 mmHg 38%

    22 November, Wednesday

    Time Temperature Precipitation Wind Pressure Humidity
    00:00 +25°C° 0 mm 2 mps 716 mmHg 41%
    01:00 +24°C° 0 mm 2 mps 715 mmHg 43%
    02:00 +24°C° 0 mm 3 mps 715 mmHg 45%
    03:00 +23°C° 0 mm 2 mps 715 mmHg 47%
    04:00 +23°C° 0 mm 2 mps 714 mmHg 48%
    05:00 +21°C° 0 mm 2 mps 714 mmHg 50%
    06:00 +24°C° 0 mm 2 mps 715 mmHg 45%
    07:00 +25°C° 0 mm 2 mps 715 mmHg 40%
    08:00 +27°C° 0 mm 3 mps 715 mmHg 36%
    09:00 +28°C° 0 mm 3 mps 714 mmHg 31%
    10:00 +30°C° 0 mm 3 mps 714 mmHg 27%
    11:00 +33°C° 0 mm 3 mps 713 mmHg 22%
    12:00 +34°C° 0 mm 3 mps 713 mmHg 20%
    13:00 +35°C° 0 mm 4 mps 712 mmHg 18%
    14:00 +36°C° 0 mm 4 mps 711 mmHg 15%
    15:00 +36°C° 0 mm 4 mps 711 mmHg 16%
    16:00 +36°C° 0 mm 4 mps 710 mmHg 16%
    17:00 +37°C° 0 mm 5 mps 710 mmHg 16%
    18:00 +35°C° 0 mm 4 mps 711 mmHg 20%
    19:00 +33°C° 0 mm 4 mps 711 mmHg 23%
    20:00 +32°C° 0 mm 4 mps 712 mmHg 27%
    21:00 +30°C° 0 mm 3 mps 712 mmHg 31%
    22:00 +29°C° 0 mm 2 mps 713 mmHg 35%
    23:00 +28°C° 0 mm 2 mps 713 mmHg 38%

    23 November, Thursday

    Time Temperature Precipitation Wind Pressure Humidity
    00:00 +27°C° 0 mm 2 mps 713 mmHg 40%
    01:00 +27°C° 0 mm 1 mps 713 mmHg 42%
    02:00 +26°C° 0 mm 1 mps 712 mmHg 44%
    03:00 +25°C° 0 mm 1 mps 712 mmHg 45%
    04:00 +25°C° 0 mm 1 mps 712 mmHg 45%
    05:00 +24°C° 0 mm 1 mps 713 mmHg 46%
    06:00 +26°C° 0 mm 1 mps 713 mmHg 41%
    07:00 +28°C° 0 mm 2 mps 713 mmHg 37%
    08:00 +29°C° 0 mm 2 mps 714 mmHg 32%
    09:00 +31°C° 0 mm 2 mps 713 mmHg 29%
    10:00 +33°C° 0 mm 3 mps 713 mmHg 26%
    11:00 +34°C° 0 mm 3 mps 713 mmHg 23%
    12:00 +35°C° 0 mm 3 mps 712 mmHg 21%
    13:00 +37°C° 0 mm 3 mps 711 mmHg 19%
    14:00 +38°C° 0 mm 4 mps 710 mmHg 16%
    15:00 +38°C° 0 mm 4 mps 709 mmHg 16%
    16:00 +38°C° 0 mm 4 mps 709 mmHg 15%
    17:00 +40°C° 0 mm 4 mps 708 mmHg 15%
    18:00 +37°C° 0 mm 4 mps 708 mmHg 18%
    19:00 +35°C° 0 mm 4 mps 708 mmHg 21%
    20:00 +34°C° 0 mm 4 mps 709 mmHg 24%
    21:00 +33°C° 0 mm 3 mps 709 mmHg 26%
    22:00 +31°C° 0 mm 3 mps 709 mmHg 28%
    23:00 +30°C° 0 mm 3 mps 709 mmHg 30%
    Show more